Weather reports worldwide

Advertisment
Hawarden, United Kingdom (3321): temperature & dewpoint: 19.11.2020 00:00:00 - 25.11.2020 00:00:00 (GMT)Hawarden, United Kingdom (3321): temperature -20cm & temperature -100cm: 19.11.2020 00:00:00 - 25.11.2020 00:00:00 (GMT)Hawarden, United Kingdom (3321): wind speed & gusts: 19.11.2020 00:00:00 - 25.11.2020 00:00:00 (GMT)Hawarden, United Kingdom (3321): wind direction: 19.11.2020 00:00:00 - 25.11.2020 00:00:00 (GMT)Hawarden, United Kingdom (3321): reduced air pressure: 19.11.2020 00:00:00 - 25.11.2020 00:00:00 (GMT)Hawarden, United Kingdom (3321): visibility: 19.11.2020 00:00:00 - 25.11.2020 00:00:00 (GMT)Hawarden, United Kingdom (3321): sunshine duration: 19.11.2020 00:00:00 - 25.11.2020 00:00:00 (GMT)Hawarden, United Kingdom (3321): precipitation: 19.11.2020 00:00:00 - 25.11.2020 00:00:00 (GMT)
Date & Time tt [°C] td [°C] tt -20cm [°C] tt -100cm [°C] ff [km/h] ff [kn] fx [km/h] fx [kn] dd ppp [hPa] vv [km] sd [min] rr [mm]
25.11.2020 00:00:00 11,0 9,0 - - 21 11 - - S 1005,8 18 - 0,0
24.11.2020 23:00:00 10,6 9,0 - - 15 8 - - SSE 1005,7 19 0 0,0
24.11.2020 22:00:00 11,0 9,3 - - 15 8 - - SE 1006,1 20 0 0,0
24.11.2020 21:00:00 11,0 9,2 - - 13 7 - - SSE 1006,3 22 0 0,0
24.11.2020 20:00:00 10,9 9,5 - - 15 8 - - S 1006,8 20 0 0,2
24.11.2020 19:00:00 10,5 9,4 - - 21 11 - - SSE 1007,2 8 0 0,0
24.11.2020 18:00:00 11,2 8,7 - - 21 11 - - S 1007,4 10 0 0,0
24.11.2020 17:00:00 11,5 8,2 - - 18 10 - - SSE 1007,6 10 0 0,0
24.11.2020 16:00:00 11,6 7,7 - - 18 10 - - SSE 1008,0 10 0 0,0
24.11.2020 15:00:00 12,0 7,8 - - 16 9 - - SSE 1008,5 10 30 0,0
24.11.2020 14:00:00 13,0 8,0 - - 24 13 - - SSE 1009,3 26 54 0,0
24.11.2020 13:00:00 12,9 7,8 - - 22 12 - - S 1009,9 10 42 0,0
24.11.2020 12:00:00 12,4 8,5 - - 34 18 50 27 S 1010,4 10 18 0,0
24.11.2020 11:00:00 11,4 8,2 - - 18 10 - - SSE 1011,7 10 0 0,2
24.11.2020 10:00:00 11,9 7,7 - - 16 9 - - S 1012,8 10 0 0,0
24.11.2020 09:00:00 12,0 7,4 8,5 10,7 28 15 - - S 1013,3 10 0 0,0
24.11.2020 08:00:00 12,0 7,9 - - 22 12 - - S 1013,1 10 0 0,0
24.11.2020 07:00:00 11,6 8,3 - - 16 9 - - SE 1012,9 50 0 0,0
24.11.2020 06:00:00 10,4 8,2 - - 15 8 - - SSE 1013,4 45 0 0,0
24.11.2020 05:00:00 11,5 8,3 - - 24 13 57 31 S 1013,9 50 0 0,0
24.11.2020 04:00:00 11,6 7,6 - - 18 10 - - S 1014,6 50 0 0,0
24.11.2020 03:00:00 12,0 8,0 - - 21 11 - - S 1015,3 50 0 0,0
24.11.2020 02:00:00 12,2 7,8 - - 15 8 - - SSW 1015,7 50 0 0,0
24.11.2020 01:00:00 12,7 8,3 - - 31 17 61 33 SW 1015,6 50 0 0,0
24.11.2020 00:00:00 12,9 8,5 - - 35 19 63 34 SSW 1016,0 50 - 0,0
23.11.2020 23:00:00 12,6 8,4 - - 39 21 57 31 SSW 1016,5 50 0 0,0
23.11.2020 22:00:00 12,5 8,1 - - 34 18 61 33 SW 1017,5 50 0 0,0
23.11.2020 21:00:00 12,4 7,7 - - 37 20 55 30 SSW 1017,7 50 0 0,0
23.11.2020 20:00:00 10,7 8,1 - - 15 8 - - ESE 1018,7 50 0 0,0
23.11.2020 19:00:00 10,9 8,3 - - 21 11 - - S 1018,8 10 0 0,0
23.11.2020 18:00:00 11,2 7,9 - - 29 16 57 31 S 1019,1 10 0 0,0
23.11.2020 17:00:00 10,4 7,7 - - 21 11 - - S 1019,7 10 0 0,0
23.11.2020 16:00:00 9,9 7,4 - - 13 7 - - S 1020,5 10 0 0,0
23.11.2020 15:00:00 9,3 6,5 - - 22 12 - - SSE 1020,3 10 0 0,0
23.11.2020 14:00:00 8,8 5,8 - - 15 8 - - S 1021,6 10 0 0,0
23.11.2020 13:00:00 7,6 5,1 - - 24 13 - - S 1022,2 10 42 0,0
23.11.2020 12:00:00 7,0 4,6 - - 21 11 - - SSE 1023,5 35 18 0,0
23.11.2020 11:00:00 6,1 4,2 - - 16 9 - - SSE 1024,8 10 24 0,0
23.11.2020 10:00:00 3,3 2,8 - - 18 10 - - SSE 1025,3 10 12 0,0
23.11.2020 09:00:00 1,3 1,1 8,0 10,9 13 7 - - S 1025,2 10 6 0,0
23.11.2020 08:00:00 0,0 -0,2 - - 4 2 - - SE 1025,4 18 0 0,0
23.11.2020 07:00:00 -0,4 -0,7 - - 8 4 - - S 1026,1 18 0 0,0
23.11.2020 06:00:00 0,0 -0,6 - - 8 4 - - SSW 1026,1 23 0 0,0
23.11.2020 05:00:00 1,3 0,6 - - 5 3 - - S 1025,8 40 0 0,0
23.11.2020 04:00:00 1,9 0,6 - - 11 6 - - SSW 1025,9 35 0 0,0
23.11.2020 03:00:00 1,1 0,6 - - 5 3 - - SSW 1026,3 35 0 0,0
23.11.2020 02:00:00 0,9 0,1 - - 5 3 - - S 1026,7 27 0 0,0
23.11.2020 01:00:00 2,4 1,6 - - 11 6 - - SW 1026,9 45 0 0,0
23.11.2020 00:00:00 2,3 1,1 - - 4 2 63 34 SW 1026,9 28 - 0,0
22.11.2020 23:00:00 2,5 0,7 - - 5 3 - - S 1026,6 25 0 0,0
22.11.2020 22:00:00 6,3 2,6 - - 11 6 - - WSW 1026,2 35 0 0,0
22.11.2020 21:00:00 6,2 3,1 - - 9 5 - - WSW 1026,4 30 0 0,0
22.11.2020 20:00:00 3,3 0,9 - - 4 2 - - SSW 1026,5 28 0 0,0
22.11.2020 19:00:00 5,4 2,5 - - 8 4 - - WSW 1026,2 28 0 0,0
22.11.2020 18:00:00 7,0 2,4 - - 9 5 - - WSW 1025,8 40 0 0,0
22.11.2020 17:00:00 7,2 2,4 - - 4 2 - - - 1025,7 10 0 0,0
22.11.2020 16:00:00 7,5 2,4 - - 8 4 - - WSW 1025,6 10 6 0,0
22.11.2020 15:00:00 9,1 2,6 - - 5 3 - - - 1025,6 10 18 0,0
22.11.2020 14:00:00 9,5 3,5 - - 9 5 - - WSW 1025,7 10 18 0,0
22.11.2020 13:00:00 9,9 3,7 - - 13 7 - - WSW 1025,8 10 60 0,0
22.11.2020 12:00:00 9,3 3,0 - - 11 6 - - W 1026,2 28 60 0,0
22.11.2020 11:00:00 8,5 3,5 - - 9 5 - - SW 1026,3 10 42 0,0
22.11.2020 10:00:00 7,6 2,5 - - 11 6 - - WSW 1026,2 10 30 0,0
22.11.2020 09:00:00 5,3 2,7 9,5 11,0 15 8 - - SW 1025,9 10 0 0,0
22.11.2020 08:00:00 5,1 2,8 - - 9 5 - - WSW 1025,4 25 0 0,0
22.11.2020 07:00:00 5,3 2,6 - - 11 6 - - WSW 1024,9 25 0 0,0
22.11.2020 06:00:00 6,5 3,0 - - 9 5 - - SW 1024,8 23 0 0,0
22.11.2020 05:00:00 7,2 3,2 - - 11 6 - - WSW 1024,4 27 0 0,0
22.11.2020 04:00:00 7,6 3,4 - - 15 8 - - W 1024,2 29 0 0,0
22.11.2020 03:00:00 8,1 3,3 - - 8 4 - - WSW 1024,3 35 0 0,0
22.11.2020 02:00:00 8,6 3,2 - - 13 7 - - W 1023,6 30 0 0,0
22.11.2020 01:00:00 9,2 4,1 - - 11 6 - - W 1023,7 35 0 0,0
22.11.2020 00:00:00 9,4 5,7 - - 5 3 - - W 1023,5 22 - 0,0
21.11.2020 23:00:00 9,8 5,7 - - 8 4 - - W 1023,1 45 0 0,0
21.11.2020 22:00:00 9,9 6,9 - - 8 4 - - WSW 1022,9 50 0 0,0
21.11.2020 21:00:00 8,7 6,6 - - 9 5 - - WSW 1022,4 50 0 0,0
21.11.2020 20:00:00 7,2 6,1 - - 8 4 - - S 1022,7 30 0 0,0
21.11.2020 19:00:00 9,6 6,9 - - 5 3 - - W 1022,5 45 0 0,0
21.11.2020 18:00:00 10,5 9,8 - - 4 2 - - W 1022,1 45 0 0,2
21.11.2020 17:00:00 10,5 9,7 - - 4 2 - - WNW 1021,7 40 0 0,0
21.11.2020 16:00:00 10,6 9,9 - - 8 4 - - NNW 1021,2 10 0 0,4
21.11.2020 15:00:00 11,0 10,1 - - 15 8 - - NNW 1021,1 10 0 0,4
21.11.2020 14:00:00 13,5 10,2 - - 16 9 - - WSW 1020,8 10 0 0,0
21.11.2020 13:00:00 13,6 9,9 - - 18 10 - - SW 1021,0 10 0 0,0
21.11.2020 12:00:00 13,4 9,7 - - 21 11 - - SW 1021,3 10 0 0,0
21.11.2020 11:00:00 12,6 9,3 - - 21 11 - - SSW 1021,7 10 0 0,0
21.11.2020 10:00:00 11,9 8,4 - - 11 6 - - S 1021,7 50 6 0,0
21.11.2020 09:00:00 12,1 7,5 9,7 11,0 18 10 - - SSW 1021,5 10 0 0,0
21.11.2020 08:00:00 11,4 7,8 - - 13 7 - - SSE 1021,8 30 0 0,0
21.11.2020 07:00:00 12,3 6,6 - - 13 7 - - SSW 1021,8 26 0 0,0
21.11.2020 06:00:00 11,7 7,0 - - 28 15 52 28 WSW 1021,5 30 0 0,0
21.11.2020 05:00:00 11,9 7,1 - - 26 14 61 33 WSW 1021,3 50 0 0,0
21.11.2020 04:00:00 11,8 7,0 - - 29 16 54 29 WSW 1021,1 45 0 0,0
21.11.2020 03:00:00 11,9 7,4 - - 35 19 61 33 WSW 1021,1 50 0 0,0
21.11.2020 02:00:00 12,1 7,3 - - 13 7 - - SW 1022,3 50 0 0,0
21.11.2020 01:00:00 11,9 8,2 - - 9 5 - - S 1023,0 45 0 0,0
21.11.2020 00:00:00 11,2 8,7 - - 9 5 - - SSE 1023,2 15 - 0,0
20.11.2020 23:00:00 12,1 8,5 - - 18 10 - - SW 1023,9 40 0 0,0
20.11.2020 22:00:00 11,3 9,2 - - 13 7 - - S 1023,8 30 0 0,0
20.11.2020 21:00:00 11,6 9,0 - - 11 6 - - WSW 1024,4 27 0 0,0
20.11.2020 20:00:00 12,1 8,6 - - 16 9 - - WSW 1024,9 45 0 0,0
20.11.2020 19:00:00 12,1 8,1 - - 11 6 - - WSW 1025,6 10 0 0,0
20.11.2020 18:00:00 12,4 9,9 - - 9 5 - - SW 1025,5 50 0 0,0
20.11.2020 17:00:00 12,4 10,1 - - 15 8 - - SW 1025,4 10 0 0,0
20.11.2020 16:00:00 12,8 10,7 - - 8 4 - - WSW 1025,6 30 0 0,0
20.11.2020 15:00:00 13,1 10,9 - - 16 9 - - SW 1025,2 10 0 0,0
20.11.2020 14:00:00 13,2 10,8 - - 13 7 - - S 1025,5 10 6 0,0
20.11.2020 13:00:00 10,5 9,7 - - 18 10 - - SSE 1026,5 10 0 0,4
20.11.2020 12:00:00 10,0 9,5 - - 11 6 - - SE 1027,6 14 0 1,0
20.11.2020 11:00:00 9,0 8,4 - - 15 8 - - SE 1028,3 10 0 0,2
20.11.2020 10:00:00 8,9 7,8 - - 16 9 - - SSE 1028,6 26 0 0,2
20.11.2020 09:00:00 8,3 6,8 9,0 11,2 15 8 - - S 1029,0 10 0 0,0
20.11.2020 08:00:00 6,7 5,3 - - 15 8 - - SE 1029,4 10 0 0,0
20.11.2020 07:00:00 6,3 4,7 - - 13 7 - - SSE 1029,6 30 0 0,0
20.11.2020 06:00:00 6,0 4,4 - - 9 5 - - SE 1030,1 30 0 0,0
20.11.2020 05:00:00 4,8 3,1 - - 8 4 - - SSE 1031,0 30 0 0,0
20.11.2020 04:00:00 4,0 2,7 - - 9 5 - - SSE 1031,8 30 0 0,0
20.11.2020 03:00:00 2,6 1,4 - - 8 4 - - SSE 1032,5 35 0 0,0
20.11.2020 02:00:00 2,6 1,0 - - 9 5 - - S 1032,9 35 0 0,0
20.11.2020 01:00:00 3,7 1,2 - - 11 6 - - SSW 1033,8 45 0 0,0
20.11.2020 00:00:00 5,1 1,4 - - 11 6 - - WSW 1034,3 40 - 0,0
19.11.2020 23:00:00 5,8 2,1 - - 13 7 - - WSW 1034,3 45 0 0,0
19.11.2020 22:00:00 4,2 2,2 - - 8 4 - - SSW 1034,3 40 0 0,0
19.11.2020 21:00:00 5,4 3,2 - - 5 3 - - N 1034,7 23 0 0,0
19.11.2020 20:00:00 6,1 3,0 - - 8 4 - - WSW 1033,8 40 0 0,0
19.11.2020 19:00:00 6,1 2,8 - - 11 6 - - WSW 1033,5 10 0 0,0
19.11.2020 18:00:00 5,0 2,6 - - 8 4 - - SSW 1032,8 10 0 0,0
19.11.2020 17:00:00 6,3 2,6 - - 8 4 - - WSW 1032,9 10 0 0,0
19.11.2020 16:00:00 7,0 1,5 - - 11 6 - - W 1032,9 10 0 0,0
19.11.2020 15:00:00 7,9 1,8 - - 13 7 - - NNW 1032,3 10 0 0,0
19.11.2020 14:00:00 7,6 3,4 - - 13 7 - - NW 1030,6 10 30 0,0
19.11.2020 13:00:00 7,7 3,9 - - 13 7 46 25 WNW 1030,1 10 30 0,4
19.11.2020 12:00:00 8,4 3,4 - - 22 12 - - NW 1030,3 10 6 0,0
19.11.2020 11:00:00 8,6 2,5 - - 22 12 - - NW 1028,9 10 24 0,0
19.11.2020 10:00:00 8,4 4,1 - - 16 9 - - NNW 1026,7 35 6 0,2
19.11.2020 09:00:00 7,5 3,7 10,2 11,0 13 7 - - N 1025,1 10 0 0,0
19.11.2020 08:00:00 7,8 4,1 - - 29 16 52 28 N 1023,0 10 0 0,0
19.11.2020 07:00:00 9,1 6,3 - - 28 15 54 29 NW 1019,7 40 0 0,0
19.11.2020 06:00:00 9,7 6,1 - - 28 15 46 25 WNW 1017,7 22 0 0,6
19.11.2020 05:00:00 9,9 7,1 - - 16 9 - - WNW 1016,4 24 0 0,6
19.11.2020 04:00:00 9,1 6,6 - - 18 10 - - W 1015,0 6 0 0,2
19.11.2020 03:00:00 9,3 5,4 - - 18 10 46 25 W 1013,8 29 0 0,0
19.11.2020 02:00:00 9,8 5,4 - - 28 15 - - W 1012,6 35 0 0,0
19.11.2020 01:00:00 9,9 6,2 - - 15 8 - - W 1011,2 50 0 0,0
19.11.2020 00:00:00 9,6 5,8 - - 24 13 55 30 WSW 1010,0 28 - 0,0

tt = temperature
td = dewpoint
tt -20cm = temperature -20cm
tt -100cm = temperature -100cm
ff = wind speed
fx = gusts
dd = wind direction
ppp = reduced air pressure
vv = visibility
sd = sunshine duration
rr = precipitation

Next stations